Flag for Germany Weather past 2 weeks in Erkrath, North Rhine-Westphalia, Germany

Now
52 °F

Fog.


Feels Like: 52 °F
Forecast: 48 / 60 °F
Wind: 2 mph from Southeast

Location: Duesseldorf

Current Time: May 29, 2015 at 3:23:39 AM

Latest Report: May 29, 2015 at 2:50 AM


Visibility: N/A

Pressure: 29.95 "Hg

Humidity: 94%

Dew point: 50 °F

Location of ErkrathLocation

Historic Weather in Erkrath — Graph

°F

Erkrath temperature yesterday

Maximum temperature yesterday: 66 °F (at 4:20 PM)
Minimum temperature yesterday: 54 °F (at 10:50 PM)
Average temperature yesterday: 58 °F

Past Weeks' High & Low Weather Summary

 TemperatureHumidityPressure
High70 °F (May 18, 2:50 PM)100% (May 16, 3:50 PM)30.33 "Hg (May 16, 3:50 PM)
Low37 °F (May 21, 4:20 AM)33% (May 22, 3:50 PM)29.65 "Hg (May 18, 6:20 PM)
Average55 °F66%30.06 "Hg
* Reported May 14 2:20 AM — May 29 2:20 AM, Erkrath, Weather by CustomWeather, © 2015

Note: Actual official high and low records may vary slightly from our data, if they occured in-between our weather recording intervals... More about our weather records

Advertising

Erkrath weather history for previous 24 hours

 ConditionsComfort  
Time TempWeatherWind HumidityBarometerVisibility
2:20 AM
Fri, May 29
52 °FClear.1 mph100%29.95 "Hg10 mi
1:50 AM52 °FClear.1 mph100%29.95 "Hg10 mi
1:20 AM52 °FClear.2 mph100%29.95 "Hg10 mi
12:50 AM52 °FFog.1 mph100%29.95 "HgN/A
12:20 AM52 °FFog.2 mph94%29.95 "HgN/A
11:50 PM
Thu, May 28
54 °FFog.No wind88%29.95 "HgN/A
11:20 PM54 °FFog.No wind94%29.95 "HgN/A
10:50 PM54 °FPassing clouds.2 mph94%29.95 "HgN/A
10:20 PM55 °FPartly sunny.2 mph88%29.95 "HgN/A
9:50 PM55 °FPartly sunny.3 mph88%29.95 "HgN/A
9:20 PM55 °FPartly sunny.6 mph94%29.95 "HgN/A
8:50 PM55 °FPartly sunny.6 mph88%29.95 "HgN/A
8:20 PM55 °FPartly sunny.6 mph88%29.95 "HgN/A
7:50 PM55 °FSprinkles. Broken clouds.5 mph94%29.95 "HgN/A
7:20 PM55 °FSprinkles. Partly sunny.7 mph88%29.95 "HgN/A
6:50 PM55 °FPartly sunny.6 mph88%29.95 "HgN/A
6:20 PM55 °FSprinkles. Partly sunny.8 mph88%29.92 "HgN/A
5:50 PM55 °FSprinkles. Partly sunny.7 mph88%29.92 "Hg6 mi
5:20 PM55 °FSprinkles. Partly sunny.15 mph82%29.92 "HgN/A
4:50 PM61 °FSprinkles. Partly sunny.14 mph59%29.92 "HgN/A
4:20 PM66 °FScattered showers. Scattered clouds.16 mph52%29.92 "HgN/A
3:50 PM64 °FPassing clouds.17 mph56%29.92 "HgN/A
3:20 PM63 °FPartly sunny.17 mph59%29.92 "HgN/A
2:50 PM63 °FScattered clouds.16 mph56%29.92 "HgN/A
2:20 PM63 °FBroken clouds.21 mph52%29.92 "HgN/A
1:50 PM64 °FScattered clouds.18 mph49%29.92 "HgN/A
1:20 PM64 °FPartly sunny.20 mph46%29.92 "HgN/A
12:50 PM64 °FPartly sunny.18 mph46%29.92 "HgN/A
12:20 PM64 °FPartly sunny.18 mph49%29.92 "HgN/A
11:50 AM63 °FPartly sunny.17 mph52%29.92 "HgN/A
11:20 AM63 °FPartly sunny.18 mph52%29.92 "HgN/A
10:50 AM63 °FPartly sunny.18 mph56%29.95 "HgN/A
10:20 AM61 °FBroken clouds.15 mph59%29.95 "HgN/A
9:50 AM61 °FPartly sunny.14 mph55%29.95 "HgN/A
9:20 AM61 °FPartly sunny.14 mph59%29.95 "HgN/A
8:50 AM59 °FSunny.14 mph63%29.95 "Hg10 mi
8:20 AM59 °FPartly sunny.14 mph63%29.95 "HgN/A
7:50 AM59 °FPartly sunny.12 mph59%29.95 "HgN/A
7:20 AM57 °FPartly sunny.12 mph63%29.95 "HgN/A
6:50 AM57 °FBroken clouds.12 mph63%29.95 "HgN/A
6:20 AM57 °FPartly cloudy.13 mph63%29.95 "HgN/A
5:50 AM55 °FPassing clouds.13 mph63%29.98 "HgN/A
5:20 AM55 °FPartly cloudy.10 mph63%29.98 "HgN/A
4:50 AM55 °FPartly cloudy.13 mph63%29.98 "HgN/A
4:20 AM55 °FClear.13 mph63%29.98 "Hg10 mi
3:50 AM55 °FClear.10 mph63%29.98 "Hg10 mi
3:20 AM55 °FClear.12 mph63%30.01 "Hg10 mi
Weather by CustomWeather, © 2015

See weather overviewHow to use our weather pages